Wind_Speed
23 23 23 23 23 24 24 24 24 24 24 25 26 26 26 27 26 27 27 27 28 27 28 30 32 35 37 38 38 38 37 36 36 36 36 35 36 37 37 33 30 30 33 34 31 31 33 32 31 31 30 29 27 23 20 19 19 22 24 25 26 26 27
22 22 22 22 23 23 24 24 24 24 25 26 27 27 28 28 28 28 28 28 29 28 28 29 31 32 34 35 37 37 37 37 37 37 38 39 39 40 41 38 35 33 36 37 34 32 34 35 36 37 35 34 34 32 29 26 24 24 25 25 25 25 26
21 21 21 22 22 23 23 24 24 24 25 26 26 27 28 28 29 30 30 30 31 30 29 30 31 32 32 34 36 36 34 34 34 35 37 41 41 41 42 41 38 35 36 38 37 35 35 35 35 36 37 37 38 37 35 34 32 30 29 29 29 29 29
20 21 21 22 22 22 22 23 22 23 24 25 26 27 28 28 28 29 30 31 31 32 32 31 31 31 30 30 34 36 35 32 31 32 34 38 39 40 41 41 39 37 37 39 39 38 38 36 35 35 34 35 36 38 37 36 34 33 32 31 31 32 34
21 20 21 22 22 21 21 22 22 22 23 23 24 26 27 28 29 29 29 30 30 31 32 32 32 32 30 30 31 34 35 35 33 33 34 36 37 37 37 36 36 36 36 37 39 40 40 37 35 35 34 33 33 34 35 35 34 32 31 30 30 33 35
21 21 21 21 21 21 20 20 20 21 22 22 22 23 25 26 28 30 30 30 30 30 30 31 31 31 32 33 33 32 33 34 35 35 37 38 38 37 37 35 35 35 34 36 37 38 39 38 36 36 35 33 31 32 33 33 34 34 32 31 31 33 33
21 21 21 20 20 19 19 19 19 20 21 22 21 22 23 24 25 27 28 29 30 30 30 31 30 30 31 34 36 36 35 34 34 35 37 39 39 40 40 40 40 38 36 37 37 38 38 37 36 35 34 32 30 30 31 32 35 37 37 35 35 35 35
21 20 20 19 18 17 17 18 19 20 21 21 21 20 21 22 22 23 25 26 27 28 29 30 30 30 30 31 34 36 37 37 36 35 36 37 36 35 37 41 42 40 37 35 34 35 36 36 35 35 36 35 32 31 33 34 35 37 37 36 36 36 36
21 20 20 18 17 16 16 18 19 20 20 21 20 19 19 20 21 22 23 24 24 25 26 26 27 28 28 29 30 32 34 37 39 38 37 37 35 31 30 34 37 38 36 34 32 31 31 32 34 33 33 34 34 35 37 37 35 35 35 33 33 33 32
19 19 19 18 17 17 17 18 19 20 19 18 18 20 21 22 22 23 23 24 25 25 25 24 25 25 25 25 26 27 30 33 37 38 39 39 38 34 31 31 34 37 36 33 32 31 28 26 30 31 31 32 32 33 34 33 32 33 33 31 31 31 30
18 18 17 17 17 17 18 19 19 18 16 15 16 19 23 25 26 26 26 27 27 27 26 26 26 26 26 26 26 25 25 27 31 36 40 40 39 37 35 32 34 38 37 34 33 33 29 25 26 28 30 30 30 29 29 30 30 30 30 29 29 30 28
16 16 15 16 16 16 17 18 17 15 14 14 14 17 21 24 27 28 28 29 29 28 28 28 29 29 29 29 29 27 26 25 26 30 38 42 41 38 36 36 35 37 38 37 34 34 33 29 26 25 26 27 28 27 28 29 29 29 29 28 29 30 29
15 14 14 14 14 15 16 15 13 13 14 13 13 15 18 22 25 28 29 30 30 30 30 30 30 31 32 31 32 31 30 28 26 25 31 39 43 42 40 39 37 37 38 38 34 34 34 32 29 26 25 25 25 25 27 29 30 29 29 29 29 30 28
14 14 13 12 12 12 13 12 12 12 13 13 14 16 18 20 22 25 27 29 30 30 29 28 28 30 31 32 33 34 32 31 29 25 25 32 42 47 47 44 41 40 41 39 35 35 36 33 29 27 26 25 24 22 23 25 27 26 27 27 27 26 25
14 14 12 9 9 10 11 11 11 12 13 13 15 17 19 19 20 22 24 25 26 26 27 26 26 27 27 29 32 34 32 31 29 27 25 26 34 44 50 50 47 45 43 39 35 36 36 33 30 28 27 27 27 24 21 20 20 19 20 21 22 23 23
13 14 11 7 8 10 11 10 10 12 12 12 14 17 18 19 20 20 21 23 24 25 25 25 25 25 25 25 28 30 31 31 29 27 26 25 27 34 41 46 46 42 39 37 35 33 33 32 30 29 29 29 29 27 22 19 19 19 19 19 20 21 22
13 12 10 7 7 10 11 10 10 11 12 13 17 19 18 18 21 21 20 21 21 22 22 23 23 23 23 24 22 23 26 28 28 27 26 23 23 27 31 34 34 32 32 32 31 29 29 29 28 29 30 30 29 25 20 19 21 21 21 20 21 22 22
13 11 8 6 7 10 11 9 9 11 14 17 19 19 17 15 15 15 17 18 18 18 19 19 20 21 23 23 19 18 22 24 25 27 27 24 23 25 29 31 29 29 30 30 29 29 27 27 28 29 29 29 26 22 20 21 22 21 20 21 22 23 24
12 11 8 7 7 9 10 11 11 11 14 18 18 16 18 18 14 11 12 14 15 17 19 19 20 20 21 21 18 18 20 20 21 24 26 26 25 26 30 33 31 31 32 31 29 28 27 27 28 29 28 27 24 22 21 21 21 20 20 22 22 23 23
10 11 9 7 7 8 11 14 14 11 12 18 18 14 16 18 16 15 15 16 14 14 16 19 21 21 19 19 18 18 18 18 19 21 23 26 28 28 29 30 32 33 32 30 29 27 25 25 27 28 29 27 24 23 22 22 21 20 21 22 23 23 24
8 10 10 7 7 10 12 14 14 10 12 17 17 13 13 16 17 15 15 15 14 13 13 15 19 21 18 18 18 17 16 16 17 19 22 23 26 28 27 26 29 33 32 30 29 27 25 24 25 27 28 27 25 25 24 24 23 22 23 24 25 26 27
7 10 10 8 8 12 14 14 12 10 12 15 16 15 14 15 17 17 14 14 13 12 12 12 13 16 16 16 15 14 12 13 14 18 22 23 23 25 25 25 27 30 30 28 28 27 25 23 23 24 26 26 26 26 26 26 26 26 27 27 27 28 29
7 10 11 10 11 14 15 15 13 12 12 14 15 15 14 14 16 17 15 14 13 12 11 10 10 11 12 14 14 14 13 12 13 15 19 21 21 21 22 23 26 28 29 29 27 26 25 23 22 22 23 25 26 27 27 28 28 28 29 29 28 28 28
7 10 13 13 14 16 17 17 16 15 14 15 15 15 15 14 14 16 16 16 15 13 12 12 11 11 11 12 13 14 15 16 16 17 19 20 19 19 20 23 25 26 27 27 27 26 26 24 22 22 23 24 25 25 25 26 27 27 27 27 26 25 26
7 10 14 15 16 19 20 19 18 17 16 17 17 16 15 14 14 15 16 17 16 14 12 12 13 14 14 14 14 15 16 17 16 16 17 18 18 19 20 21 23 25 26 26 27 27 26 25 23 23 23 23 23 22 21 22 23 24 23 23 23 22 23
9 13 16 15 16 22 23 21 20 18 18 18 18 17 16 15 15 15 16 17 16 13 11 10 9 11 12 14 15 16 17 17 16 14 12 12 14 18 21 21 20 23 25 26 27 28 27 26 25 25 24 23 21 20 19 19 19 20 20 21 21 20 20
12 17 18 16 18 23 25 23 21 20 19 19 19 19 19 18 16 15 16 18 17 13 10 10 10 9 9 11 12 13 13 14 15 15 13 11 10 13 20 23 23 23 24 25 26 26 27 26 25 24 23 22 21 22 22 20 19 19 19 19 19 21 22
18 19 17 16 19 23 25 23 21 20 20 21 22 22 22 21 19 16 16 20 20 15 11 11 12 12 11 11 11 11 10 11 13 15 16 15 14 13 15 19 21 23 25 25 26 25 25 24 24 23 22 21 21 23 23 23 22 21 20 19 20 23 24
18 17 15 16 19 21 22 22 21 20 20 21 21 21 21 21 18 15 15 19 19 14 11 12 13 13 13 12 10 10 10 10 11 12 13 14 15 16 16 16 17 19 21 23 24 24 22 20 19 19 20 19 20 21 23 24 24 23 23 21 22 23 25
12 12 13 16 18 18 18 19 19 19 19 19 19 19 19 18 14 12 14 17 15 12 11 12 11 10 9 8 8 7 7 8 9 10 10 11 12 14 15 16 17 18 20 21 22 23 24 23 23 24 24 24 23 23 23 25 25 25 25 24 23 24 24
9 11 14 16 17 18 18 18 17 18 19 17 18 19 17 12 9 10 15 14 13 11 10 9 8 5 4 4 4 4 3 3 4 5 7 8 9 11 12 14 16 17 18 20 21 22 24 25 27 29 31 31 29 26 24 26 28 28 26 24 24 24 23
9 12 13 14 15 16 17 16 17 17 17 17 18 18 14 9 9 13 14 13 12 10 9 7 5 4 2 1 1 1 2 2 3 3 3 4 5 7 8 9 11 12 14 16 18 19 21 23 25 27 28 29 28 26 25 28 28 28 26 25 24 24 23
8 10 10 10 11 12 13 15 16 16 16 17 18 16 12 9 11 13 12 11 10 9 7 5 3 2 1 1 2 2 3 4 5 5 5 6 6 6 7 7 8 9 11 12 13 15 17 20 22 24 26 27 27 26 27 30 29 27 26 26 26 26 25
6 8 9 9 9 9 10 12 14 15 16 17 16 14 11 10 10 10 10 10 9 7 6 5 3 2 2 2 3 4 5 5 6 7 7 8 8 8 9 9 10 10 11 12 12 13 13 15 18 20 23 26 28 27 28 32 32 29 27 28 28 27 27
7 7 9 9 8 7 8 9 11 12 14 15 14 12 10 9 9 9 9 9 7 6 6 5 5 4 3 3 4 5 6 7 8 8 9 9 9 9 10 10 11 12 12 12 12 12 12 13 14 16 19 23 27 27 28 33 36 33 29 28 29 28 28
10 9 8 7 7 6 5 6 8 11 12 12 12 12 11 9 8 7 6 5 5 4 4 5 5 4 3 2 3 5 6 8 9 10 11 11 10 9 9 9 10 11 12 12 11 11 11 11 12 14 16 19 23 26 27 31 36 36 31 28 28 28 28
Wind_Direction
307 305 303 301 299 297 294 289 286 282 279 276 274 273 272 271 270 270 270 270 269 267 264 260 258 254 250 250 254 254 255 254 253 255 256 254 253 252 254 260 267 272 271 266 262 260 255 249 247 245 240 240 241 237 234 236 239 244 247 249 251 252 251
309 307 305 303 300 298 296 293 290 285 279 276 274 272 271 270 269 268 268 268 267 266 265 262 260 258 252 249 252 255 256 256 254 254 255 253 252 254 254 259 267 272 272 270 265 261 260 257 255 252 244 239 243 244 243 242 242 244 247 248 248 249 249
310 309 308 306 304 301 299 297 295 289 283 280 278 275 273 271 269 268 266 265 264 264 264 263 261 261 257 252 251 253 254 255 256 255 255 253 252 255 257 259 264 268 268 268 267 262 261 260 259 259 252 245 245 250 252 252 251 251 254 254 252 252 252
311 311 310 308 306 304 301 300 298 293 287 282 279 277 275 274 271 269 267 265 265 264 263 262 261 260 260 257 253 251 251 251 252 253 253 253 252 254 257 259 260 262 262 264 264 261 259 259 258 258 257 254 253 254 256 257 256 256 257 257 256 256 255
311 311 310 309 307 305 304 304 302 298 293 287 282 278 275 274 273 272 271 269 267 266 265 264 261 258 256 256 255 253 251 250 249 248 247 249 250 250 253 256 258 259 259 260 261 259 257 257 258 257 256 257 258 259 259 259 259 259 259 257 257 258 258
309 309 309 308 306 304 305 306 304 302 300 296 291 285 280 276 273 271 271 271 270 269 268 266 264 260 253 252 252 252 251 251 250 248 246 245 246 246 248 251 253 255 258 258 259 260 257 255 256 257 257 256 256 259 259 260 260 260 259 259 260 261 262
306 307 307 306 303 302 305 307 308 308 306 304 301 296 290 284 278 274 271 271 270 270 269 268 267 265 257 251 250 249 249 250 250 249 248 246 246 247 248 249 249 252 257 257 256 258 258 255 252 253 254 254 253 255 256 258 260 261 260 261 263 265 267
303 304 305 303 299 300 304 308 310 310 307 307 307 304 298 293 287 283 278 275 273 271 270 270 268 267 264 257 252 249 248 247 247 246 247 246 246 248 249 249 249 251 255 255 254 257 259 255 251 250 251 250 251 253 253 254 256 260 261 262 263 266 268
301 303 303 300 295 297 305 308 308 308 307 308 309 308 307 302 295 290 287 283 281 277 274 273 270 269 268 266 262 257 252 248 245 243 242 241 241 244 247 246 246 247 251 254 254 259 263 256 249 249 250 249 250 251 251 253 256 259 262 264 265 266 264
299 303 303 299 293 294 301 304 305 307 308 309 310 307 303 302 300 296 292 288 287 286 283 281 278 275 273 270 268 264 258 252 246 243 241 241 243 244 244 245 245 245 249 253 255 261 267 258 247 246 248 249 252 252 253 255 258 260 262 265 267 265 260
299 303 301 296 292 293 297 301 305 309 312 313 311 300 292 292 295 295 294 291 289 290 290 289 288 286 282 277 272 269 265 258 250 243 240 241 245 246 244 244 246 247 249 253 255 260 266 263 256 254 253 254 256 257 258 258 259 261 263 264 265 264 260
302 304 300 294 292 295 300 305 310 318 321 317 310 298 288 285 287 288 290 291 290 291 292 293 292 291 289 287 282 276 271 266 258 248 240 239 242 245 244 242 244 246 249 252 255 260 262 262 263 265 262 260 261 262 262 262 260 260 261 260 260 260 261
305 307 304 297 296 301 307 312 317 322 321 314 307 297 289 285 283 283 286 289 291 293 294 294 294 292 292 292 288 283 278 273 268 259 247 239 239 241 241 241 242 244 246 248 254 260 261 259 262 267 263 260 265 268 265 262 260 259 258 257 256 258 260
307 312 309 305 307 311 314 320 324 321 319 317 311 300 292 289 284 280 282 285 287 290 292 292 293 292 293 293 288 284 282 278 274 269 260 246 239 237 237 237 238 238 239 242 249 256 258 256 256 263 263 260 265 269 263 258 257 256 255 255 257 260 262
310 317 316 313 320 324 321 326 334 331 326 323 313 300 293 290 284 277 275 276 279 283 286 288 289 288 290 293 291 288 285 281 277 272 267 257 244 238 236 236 236 235 235 240 246 252 256 254 254 260 264 263 265 266 262 258 254 249 250 254 257 258 258
313 318 318 318 335 337 327 328 344 342 332 327 316 303 291 282 276 274 274 274 275 277 280 283 285 282 281 285 291 293 289 283 279 274 268 262 250 240 237 237 235 233 234 239 245 250 254 255 257 260 263 265 266 264 261 261 258 253 254 258 258 255 252
316 320 319 320 342 346 333 332 351 352 347 344 333 320 305 286 275 272 276 281 280 279 280 283 285 284 280 278 283 293 293 286 277 270 267 263 250 239 235 233 230 229 232 237 242 248 252 255 257 260 262 263 263 260 256 257 256 255 256 257 255 255 255
317 320 322 325 339 346 338 336 352 1 2 355 344 340 338 322 298 282 281 286 287 285 285 288 289 285 279 275 276 287 293 288 274 263 262 260 250 237 230 228 227 230 233 236 240 244 246 248 251 254 257 256 254 251 250 251 252 254 255 254 253 255 260
318 316 322 328 330 340 345 341 342 354 2 351 338 347 3 0 352 344 327 315 305 292 285 286 291 289 277 267 270 280 286 287 276 262 258 255 249 242 235 231 231 234 236 237 239 240 241 243 245 248 249 248 245 243 244 247 251 252 251 252 253 255 257
319 314 315 320 325 339 345 338 327 329 351 345 327 334 4 3 357 357 348 335 326 312 296 285 287 295 282 257 262 276 278 280 276 263 254 250 246 244 243 239 236 236 238 239 239 238 241 244 245 244 244 243 242 241 240 241 245 248 250 252 254 253 252
321 316 312 311 328 337 331 324 317 312 333 337 323 324 354 356 346 344 337 324 318 322 321 297 285 293 283 254 260 278 271 266 270 259 248 247 247 246 248 247 242 238 238 239 239 240 244 246 243 241 240 239 239 239 237 238 243 249 251 253 253 252 251
327 325 320 314 328 332 317 308 311 310 314 320 319 324 342 350 343 335 325 315 309 315 330 322 301 298 284 258 268 287 267 253 263 256 246 246 251 253 252 248 244 239 238 239 240 243 247 247 243 239 235 235 239 239 238 242 247 251 252 253 254 253 252
335 336 331 328 334 329 314 305 309 310 306 308 314 323 334 342 341 331 318 312 309 303 310 316 309 301 285 268 274 285 273 265 273 266 254 250 252 256 252 244 239 236 235 236 238 242 246 247 245 240 235 234 237 239 241 246 250 252 252 252 252 252 251
340 340 338 341 338 326 318 317 316 313 313 314 313 318 325 332 335 329 320 317 315 304 295 295 292 287 281 273 274 276 274 274 276 275 268 259 252 250 246 239 235 234 233 234 235 239 244 244 243 242 238 237 239 243 247 249 250 250 249 248 248 248 248
343 340 340 344 334 319 317 323 322 317 318 317 313 312 317 324 329 326 319 318 318 312 303 297 290 282 278 275 273 273 273 274 276 278 275 264 252 246 242 236 230 229 233 237 237 240 243 245 245 245 244 246 251 253 251 246 242 241 239 239 241 243 244
346 343 342 339 322 311 313 321 326 324 321 318 314 310 311 318 325 324 318 316 315 313 315 314 303 289 283 280 277 276 275 270 267 269 270 263 249 241 239 238 233 229 232 238 241 244 248 250 251 253 254 256 258 253 244 239 237 239 239 238 240 239 238
347 343 340 328 310 305 310 320 326 326 324 324 322 319 317 319 321 320 318 316 315 319 326 323 313 299 289 284 281 280 278 266 255 254 258 260 251 235 230 231 234 236 238 243 248 253 257 258 259 259 257 254 251 246 244 244 245 247 246 242 240 238 236
344 340 332 315 305 305 309 315 321 326 328 328 327 326 324 321 321 326 325 317 316 322 325 311 303 297 289 282 279 275 268 257 250 253 257 260 261 255 240 231 230 231 234 237 242 248 253 258 261 260 255 252 251 251 250 249 249 252 251 244 239 238 237
331 330 318 304 302 304 307 311 317 322 323 323 324 324 320 317 322 329 321 309 309 317 313 299 297 296 287 282 281 275 262 253 250 253 255 255 255 257 255 249 243 239 237 236 236 237 240 245 253 256 253 252 256 259 257 252 249 252 251 243 238 240 243
318 312 304 298 297 298 301 306 310 312 315 320 321 316 313 321 331 320 298 297 308 318 309 299 301 302 292 285 286 282 271 263 259 257 256 255 252 250 250 251 252 251 250 248 245 244 243 244 249 254 255 257 261 263 260 253 249 248 246 239 236 240 244
299 281 283 289 291 293 296 299 303 307 311 316 314 309 315 333 333 295 287 301 319 321 309 303 303 303 295 284 286 294 293 284 278 272 264 260 259 257 254 252 252 254 254 254 252 251 249 247 247 250 254 258 260 259 255 250 246 242 239 237 237 239 241
277 273 280 285 286 291 297 300 303 306 307 306 305 310 321 328 299 287 296 310 315 310 304 301 297 291 288 291 304 340 0 345 327 312 297 283 273 266 262 259 259 260 260 260 258 255 253 250 247 246 247 249 250 250 249 245 239 236 235 236 236 236 237
293 295 297 293 289 291 295 297 299 302 302 301 304 312 320 310 293 294 300 300 297 297 296 288 275 271 295 335 356 357 349 341 336 325 313 304 295 287 281 275 269 267 266 266 266 262 258 254 250 247 244 240 238 241 245 242 236 233 234 235 233 232 235
325 315 310 308 304 299 296 296 299 300 300 302 306 311 314 308 302 299 294 285 282 286 286 275 257 260 298 335 351 350 347 341 336 327 317 308 297 289 284 277 272 269 268 267 269 268 266 262 256 250 245 239 234 236 240 239 235 231 231 231 230 231 236
341 333 325 322 319 313 308 306 306 306 306 307 309 312 313 311 304 293 280 272 268 269 276 279 275 279 303 340 354 353 351 350 346 340 331 319 304 290 281 276 273 273 272 271 270 269 270 270 265 256 248 241 236 234 236 236 233 229 228 229 229 231 234
340 343 339 334 330 328 323 320 320 322 322 321 320 319 317 311 301 287 274 269 268 269 277 281 278 277 289 330 359 0 354 351 352 349 342 334 322 306 292 285 282 282 281 279 275 272 273 278 275 263 251 242 237 235 236 236 233 230 228 229 230 231 231
Height
1440 1439 1437 1436 1434 1433 1432 1431 1430 1430 1429 1429 1428 1428 1427 1427 1427 1427 1427 1426 1426 1427 1427 1427 1427 1427 1429 1431 1431 1432 1433 1435 1435 1436 1436 1437 1437 1437 1439 1440 1441 1440 1437 1438 1441 1442 1442 1444 1445 1445 1446 1447 1448 1450 1451 1452 1453 1454 1455 1455 1456 1457 1458
1437 1436 1434 1432 1431 1430 1429 1427 1427 1426 1425 1425 1424 1424 1424 1424 1424 1423 1423 1423 1423 1423 1423 1423 1423 1424 1425 1427 1427 1428 1429 1430 1432 1432 1432 1432 1433 1433 1434 1436 1436 1436 1435 1434 1437 1440 1440 1441 1443 1442 1443 1444 1444 1446 1447 1448 1449 1450 1451 1452 1453 1453 1454
1434 1433 1431 1429 1428 1427 1425 1424 1423 1422 1421 1421 1420 1420 1420 1420 1420 1419 1419 1419 1419 1419 1420 1420 1419 1420 1421 1423 1423 1423 1425 1426 1427 1428 1428 1429 1430 1430 1431 1433 1434 1434 1433 1431 1433 1436 1436 1437 1439 1439 1440 1441 1441 1442 1444 1444 1445 1446 1447 1448 1449 1449 1450
1432 1430 1428 1426 1425 1423 1422 1421 1420 1419 1418 1417 1417 1416 1416 1416 1416 1415 1415 1415 1415 1415 1416 1416 1416 1416 1417 1418 1418 1419 1420 1422 1423 1424 1425 1425 1427 1428 1429 1430 1431 1431 1431 1430 1429 1431 1432 1433 1435 1436 1436 1438 1438 1439 1440 1440 1441 1442 1442 1443 1444 1445 1446
1429 1427 1425 1424 1422 1420 1419 1418 1417 1416 1414 1414 1413 1413 1412 1412 1411 1411 1411 1411 1411 1411 1411 1411 1411 1412 1413 1414 1414 1415 1416 1418 1419 1420 1421 1422 1424 1426 1426 1427 1428 1428 1428 1428 1427 1427 1428 1430 1431 1431 1432 1434 1435 1435 1435 1436 1437 1437 1438 1439 1440 1440 1441
1426 1424 1423 1421 1419 1418 1416 1415 1414 1412 1411 1410 1410 1409 1408 1408 1408 1407 1407 1407 1407 1407 1407 1407 1407 1408 1409 1410 1410 1411 1412 1413 1415 1416 1417 1419 1420 1422 1423 1424 1425 1425 1425 1424 1423 1423 1424 1425 1426 1427 1427 1429 1431 1431 1431 1432 1432 1433 1434 1435 1435 1436 1437
1423 1421 1420 1418 1417 1415 1414 1412 1411 1410 1408 1407 1406 1406 1405 1404 1404 1404 1403 1403 1403 1403 1403 1403 1403 1403 1404 1405 1405 1406 1408 1409 1411 1412 1413 1415 1417 1419 1420 1420 1420 1421 1421 1421 1420 1419 1419 1421 1422 1423 1423 1424 1427 1427 1427 1428 1428 1428 1429 1430 1431 1431 1433
1419 1418 1417 1415 1414 1413 1412 1410 1409 1407 1406 1404 1403 1403 1402 1401 1401 1400 1400 1400 1399 1399 1399 1399 1399 1399 1399 1400 1401 1402 1403 1405 1406 1408 1409 1411 1413 1414 1415 1415 1416 1416 1417 1416 1416 1415 1415 1416 1417 1418 1418 1420 1422 1422 1422 1423 1424 1423 1424 1426 1427 1427 1429
1416 1415 1413 1412 1411 1410 1409 1407 1406 1405 1403 1402 1401 1400 1399 1398 1398 1397 1397 1397 1396 1396 1396 1395 1395 1395 1395 1395 1396 1397 1398 1399 1401 1403 1404 1405 1408 1409 1410 1410 1411 1412 1412 1412 1412 1411 1411 1412 1412 1413 1414 1415 1417 1417 1417 1418 1420 1420 1420 1422 1422 1423 1424
1414 1412 1410 1409 1408 1407 1406 1405 1404 1402 1401 1400 1398 1397 1396 1395 1395 1394 1394 1394 1393 1392 1392 1392 1391 1391 1391 1392 1392 1392 1393 1394 1396 1397 1399 1400 1402 1404 1405 1405 1406 1406 1407 1407 1407 1407 1408 1408 1408 1409 1410 1411 1412 1413 1414 1415 1416 1416 1417 1418 1418 1418 1419
1411 1409 1408 1406 1405 1404 1403 1402 1401 1400 1398 1397 1396 1396 1395 1393 1392 1391 1390 1390 1390 1389 1388 1388 1388 1387 1387 1388 1388 1388 1389 1389 1390 1391 1393 1395 1397 1399 1400 1401 1401 1401 1402 1403 1403 1403 1404 1404 1404 1405 1407 1407 1408 1409 1410 1411 1412 1412 1413 1414 1415 1414 1414
1408 1407 1405 1403 1402 1401 1400 1399 1398 1397 1396 1395 1394 1394 1393 1392 1390 1389 1387 1387 1386 1386 1385 1385 1384 1383 1383 1383 1383 1384 1385 1385 1386 1387 1388 1390 1392 1393 1395 1396 1397 1397 1398 1399 1400 1400 1400 1400 1401 1402 1403 1404 1405 1406 1407 1407 1408 1409 1409 1410 1411 1410 1410
1404 1403 1402 1401 1399 1398 1397 1396 1395 1394 1393 1392 1392 1391 1391 1390 1388 1387 1385 1384 1383 1382 1382 1382 1381 1380 1379 1378 1378 1379 1380 1380 1381 1382 1383 1384 1385 1387 1388 1390 1392 1393 1394 1395 1396 1396 1396 1396 1397 1398 1399 1400 1402 1403 1403 1403 1404 1405 1405 1406 1407 1407 1407
1401 1400 1399 1398 1397 1396 1394 1394 1393 1392 1391 1390 1389 1388 1388 1387 1385 1384 1382 1381 1380 1379 1379 1379 1378 1377 1376 1375 1374 1374 1374 1375 1376 1377 1378 1379 1379 1379 1381 1383 1385 1387 1389 1390 1392 1392 1392 1392 1394 1394 1395 1397 1398 1399 1399 1399 1400 1401 1402 1403 1403 1403 1404
1398 1397 1396 1395 1394 1393 1392 1391 1390 1389 1388 1387 1386 1385 1385 1383 1382 1380 1379 1378 1377 1376 1375 1375 1375 1374 1373 1371 1370 1370 1370 1371 1371 1372 1373 1373 1373 1373 1375 1377 1379 1381 1384 1386 1388 1388 1389 1389 1390 1391 1392 1393 1394 1395 1396 1396 1397 1398 1399 1399 1400 1400 1401
1395 1394 1393 1393 1392 1391 1389 1388 1388 1387 1386 1385 1383 1382 1381 1379 1378 1376 1375 1374 1373 1373 1372 1372 1371 1370 1370 1369 1367 1366 1366 1367 1367 1368 1368 1368 1368 1368 1369 1371 1373 1377 1380 1383 1384 1385 1386 1386 1387 1388 1388 1389 1391 1392 1393 1393 1394 1394 1395 1396 1396 1396 1397
1392 1391 1390 1390 1389 1388 1387 1386 1385 1385 1383 1382 1381 1379 1377 1375 1373 1372 1372 1371 1370 1370 1369 1368 1368 1367 1366 1366 1365 1364 1363 1364 1364 1364 1364 1365 1365 1365 1366 1367 1370 1374 1377 1379 1381 1382 1383 1384 1384 1385 1386 1386 1387 1388 1389 1390 1390 1390 1391 1392 1392 1393 1393
1389 1389 1388 1387 1387 1386 1385 1384 1383 1382 1381 1380 1379 1377 1374 1371 1369 1369 1369 1368 1367 1367 1366 1365 1364 1364 1364 1363 1362 1361 1361 1361 1361 1361 1361 1361 1362 1363 1364 1365 1368 1371 1373 1375 1377 1378 1379 1380 1381 1382 1382 1383 1384 1385 1386 1386 1386 1387 1388 1388 1389 1389 1390
1387 1386 1386 1385 1385 1384 1383 1381 1380 1380 1379 1377 1376 1374 1372 1369 1368 1367 1367 1366 1365 1364 1363 1362 1362 1361 1361 1360 1359 1359 1358 1358 1359 1358 1357 1358 1359 1360 1360 1362 1366 1368 1370 1372 1373 1374 1375 1376 1377 1378 1379 1380 1380 1382 1383 1383 1383 1384 1385 1385 1385 1386 1387
1385 1384 1383 1383 1383 1382 1381 1380 1379 1378 1377 1375 1374 1372 1370 1368 1367 1366 1365 1364 1363 1362 1360 1360 1359 1358 1358 1357 1357 1356 1356 1356 1356 1355 1355 1356 1356 1356 1357 1360 1363 1364 1366 1368 1369 1370 1372 1372 1373 1374 1375 1376 1377 1378 1379 1380 1380 1381 1381 1382 1382 1383 1383
1383 1382 1381 1381 1380 1379 1379 1378 1377 1376 1375 1373 1372 1370 1368 1367 1366 1365 1363 1362 1360 1359 1358 1357 1356 1355 1355 1354 1354 1354 1353 1353 1353 1353 1353 1353 1352 1353 1355 1357 1359 1361 1363 1364 1366 1367 1368 1369 1369 1370 1371 1372 1373 1374 1375 1376 1377 1377 1378 1378 1378 1379 1379
1381 1380 1379 1378 1377 1377 1377 1376 1375 1374 1372 1371 1369 1368 1367 1366 1365 1363 1361 1359 1358 1357 1356 1355 1354 1353 1352 1352 1352 1351 1351 1351 1351 1351 1350 1350 1350 1350 1353 1355 1356 1357 1359 1361 1362 1363 1364 1364 1365 1366 1367 1368 1369 1370 1372 1372 1373 1374 1374 1374 1375 1375 1375
1379 1378 1377 1376 1375 1375 1374 1373 1372 1371 1370 1368 1367 1366 1365 1364 1363 1361 1359 1357 1356 1355 1354 1353 1352 1351 1350 1350 1349 1349 1349 1348 1348 1348 1348 1348 1348 1349 1351 1352 1353 1354 1355 1357 1358 1359 1360 1360 1361 1362 1363 1364 1366 1367 1368 1369 1369 1370 1370 1370 1371 1371 1371
1377 1377 1375 1373 1372 1372 1371 1370 1369 1368 1367 1366 1365 1364 1362 1361 1360 1359 1357 1355 1354 1352 1351 1350 1350 1349 1348 1348 1347 1347 1346 1346 1346 1346 1346 1346 1346 1347 1348 1349 1350 1351 1352 1353 1355 1355 1356 1356 1357 1358 1359 1361 1362 1363 1364 1365 1365 1365 1366 1366 1367 1367 1368
1376 1375 1373 1372 1370 1369 1368 1368 1366 1365 1364 1363 1362 1361 1360 1358 1357 1356 1355 1353 1352 1350 1349 1348 1347 1347 1346 1345 1345 1344 1344 1344 1344 1344 1343 1343 1344 1345 1345 1346 1347 1348 1349 1350 1351 1351 1352 1352 1353 1355 1356 1357 1359 1359 1360 1360 1360 1361 1361 1362 1363 1363 1364
1375 1373 1372 1370 1368 1367 1365 1365 1364 1362 1361 1360 1358 1357 1357 1356 1355 1354 1353 1351 1350 1348 1347 1346 1345 1344 1343 1343 1342 1342 1342 1342 1342 1342 1341 1341 1341 1342 1342 1343 1344 1345 1346 1347 1347 1348 1348 1349 1350 1352 1353 1354 1355 1355 1355 1356 1357 1357 1358 1359 1359 1360 1361
1373 1371 1370 1368 1366 1364 1363 1362 1361 1360 1358 1357 1355 1354 1353 1352 1351 1351 1350 1349 1348 1346 1345 1344 1343 1342 1341 1341 1340 1340 1339 1339 1339 1339 1339 1339 1339 1339 1340 1341 1342 1343 1343 1344 1345 1345 1346 1346 1347 1348 1349 1350 1350 1351 1352 1353 1353 1354 1355 1356 1356 1357 1358
1370 1370 1368 1367 1364 1362 1361 1360 1359 1357 1356 1355 1353 1352 1351 1350 1349 1348 1347 1347 1345 1344 1343 1342 1341 1340 1339 1339 1338 1338 1337 1337 1336 1337 1337 1337 1337 1337 1338 1338 1339 1340 1340 1341 1342 1342 1343 1343 1344 1344 1345 1346 1346 1347 1348 1349 1350 1351 1352 1353 1354 1354 1355
1370 1369 1367 1365 1362 1360 1359 1357 1356 1356 1355 1354 1353 1352 1350 1348 1347 1347 1346 1345 1343 1342 1341 1340 1339 1338 1337 1336 1336 1335 1335 1334 1334 1334 1334 1334 1334 1334 1335 1335 1336 1336 1337 1338 1338 1339 1340 1340 1340 1341 1341 1342 1343 1344 1345 1346 1347 1348 1348 1349 1351 1351 1352
1369 1367 1365 1363 1361 1359 1358 1356 1354 1354 1353 1352 1351 1350 1348 1347 1346 1345 1344 1343 1342 1341 1340 1338 1337 1335 1334 1334 1334 1333 1333 1332 1332 1332 1332 1332 1332 1332 1332 1332 1332 1333 1333 1334 1334 1335 1336 1337 1337 1337 1338 1339 1340 1341 1341 1342 1343 1344 1345 1346 1348 1348 1349
1366 1364 1362 1361 1359 1357 1355 1354 1353 1352 1350 1349 1348 1346 1345 1345 1345 1343 1341 1341 1340 1339 1338 1337 1335 1334 1333 1332 1332 1332 1331 1331 1331 1330 1330 1330 1330 1330 1330 1330 1330 1330 1330 1331 1331 1332 1332 1333 1333 1334 1334 1335 1336 1337 1338 1339 1340 1341 1342 1344 1345 1346 1346
1362 1360 1359 1358 1357 1355 1353 1352 1351 1349 1348 1347 1345 1344 1343 1343 1342 1340 1340 1339 1338 1337 1336 1335 1334 1333 1332 1332 1331 1331 1331 1330 1330 1329 1329 1329 1329 1328 1328 1328 1328 1328 1328 1328 1328 1328 1329 1329 1329 1330 1331 1331 1332 1334 1334 1335 1336 1338 1339 1340 1342 1343 1344
1359 1358 1357 1356 1354 1353 1352 1350 1348 1347 1346 1344 1343 1342 1341 1341 1340 1338 1338 1338 1337 1336 1335 1334 1333 1332 1332 1331 1331 1330 1330 1329 1329 1328 1328 1327 1327 1327 1326 1326 1326 1326 1326 1325 1325 1325 1325 1325 1326 1326 1327 1327 1329 1330 1330 1331 1333 1334 1336 1337 1338 1340 1341
1357 1356 1354 1353 1352 1351 1350 1348 1347 1345 1343 1342 1341 1340 1339 1339 1338 1337 1336 1336 1335 1335 1334 1333 1332 1332 1331 1331 1330 1330 1329 1328 1328 1327 1327 1326 1326 1325 1325 1324 1324 1324 1323 1323 1323 1322 1322 1322 1322 1322 1323 1323 1324 1326 1327 1328 1329 1330 1332 1334 1335 1336 1338
1355 1354 1352 1351 1350 1349 1348 1346 1345 1343 1341 1340 1339 1338 1337 1337 1336 1335 1335 1334 1334 1333 1333 1332 1332 1331 1330 1330 1329 1329 1328 1327 1327 1326 1325 1324 1324 1323 1322 1322 1321 1321 1321 1320 1320 1320 1319 1319 1319 1319 1319 1319 1320 1321 1322 1323 1325 1326 1328 1330 1331 1333 1334
1353 1352 1351 1350 1349 1347 1346 1345 1343 1341 1340 1338 1337 1336 1336 1335 1335 1334 1333 1332 1332 1332 1331 1331 1330 1330 1329 1329 1328 1328 1327 1326 1326 1325 1324 1323 1322 1321 1320 1319 1319 1318 1318 1317 1317 1317 1317 1316 1316 1316 1315 1316 1316 1317 1319 1320 1321 1323 1324 1326 1328 1329 1331